This is the latest recevied weather packets stored in our database for station/object KG5WBN. If no packets are shown the sender has not sent any weather packets the latest 10 day(s).
| Time | Temp. | Humidity | Pressure | Rain* | Wind** | Luminosity | Snow |
|---|---|---|---|---|---|---|---|
| 1777416902 | 27.78° C | 42% | 1014.2 hPa | 0 mm | - | 72 W/m² | - |
| 1777416598 | 28.33° C | 44% | 1014.2 hPa | 0 mm | - | 63 W/m² | - |
| 1777416294 | 28.33° C | 44% | 1014.2 hPa | 0 mm | - | 72 W/m² | - |
| 1777415993 | 28.33° C | 42% | 1014.2 hPa | 0 mm | - | 80 W/m² | - |
| 1777415689 | 28.33° C | 43% | 1014.6 hPa | 0 mm | - | 69 W/m² | - |
| 1777415384 | 28.89° C | 44% | 1014.2 hPa | 0 mm | - | 69 W/m² | - |
| 1777415079 | 28.89° C | 44% | 1014.2 hPa | 0 mm | - | 67 W/m² | - |
| 1777414779 | 28.89° C | 40% | 1014.2 hPa | 0 mm | - | 75 W/m² | - |
| 1777414476 | 28.89° C | 39% | 1014.6 hPa | 0 mm | - | 79 W/m² | - |
| 1777414174 | 30° C | 36% | 1014.2 hPa | 0 mm | - | 83 W/m² | - |
| 1777413870 | 30° C | 37% | 1014.6 hPa | 0 mm | - | 279 W/m² | - |
| 1777413566 | 30.56° C | 36% | 1014.2 hPa | 0 mm | - | 286 W/m² | - |
| 1777413262 | 30° C | 36% | 1014.6 hPa | 0 mm | - | 289 W/m² | - |
| 1777412958 | 30.56° C | 36% | 1014.2 hPa | 0 mm | - | 304 W/m² | - |
| 1777412656 | 30.56° C | 36% | 1014.2 hPa | 0 mm | - | 307 W/m² | - |
| 1777412355 | 30.56° C | 34% | 1014.6 hPa | 0 mm | - | 314 W/m² | - |
| 1777412049 | 31.11° C | 33% | 1014.6 hPa | 0 mm | - | 320 W/m² | - |
| 1777411749 | 30.56° C | 34% | 1014.6 hPa | 0 mm | - | 324 W/m² | - |
| 1777411444 | 31.11° C | 34% | 1014.6 hPa | 0 mm | - | 326 W/m² | - |
| 1777411138 | 30.56° C | 34% | 1014.9 hPa | 0 mm | - | 327 W/m² | - |
| 1777410838 | 30.56° C | 34% | 1014.6 hPa | 0 mm | - | 331 W/m² | - |
| 1777410532 | 30.56° C | 34% | 1014.6 hPa | 0 mm | - | 340 W/m² | - |
| 1777410231 | 30.56° C | 35% | 1014.6 hPa | 0 mm | - | 354 W/m² | - |
| 1777409927 | 30.56° C | 37% | 1014.6 hPa | 0 mm | - | 389 W/m² | - |
| 1777409622 | 30.56° C | 36% | 1014.2 hPa | 0 mm | - | 272 W/m² | - |
* Rain latest hour (hover to see other rain measurements)
** Current wind speed in m/s (hover to see current wind gust speed)